TGM annuale;;;;;;;;;;;;;;;;TGM annuale;;;;;;;;;;;;;;;;TGM annuale;;;;;;;;;;;;;;
Tratta nr.53 SR436, Km 2.800, Pieve a Nievole(PT) (flussi ascendente/discendente);;;;;;;;;;;;;;;;Tratta nr.53 SR436, Km 2.800, Pieve a Nievole(PT) (flusso ascendente);;;;;;;;;;;;;;;;Tratta nr.53 SR436, Km 2.800, Pieve a Nievole(PT) (flusso discendente);;;;;;;;;;;;;;
Anno;01 Motocicli;02 Auto e monovolume;03 Auto e monovolume con rimorchio;04 Furgoncini e camioncini;05 Camion medi;06 Camion grandi;07 Autotreni;08 Autoarticolati;09 Autobus;10 Veicoli non classificati;Totale;Feriali;Festivi;Prefestivi;;Anno;01 Motocicli;02 Auto e monovolume;03 Auto e monovolume con rimorchio;04 Furgoncini e camioncini;05 Camion medi;06 Camion grandi;07 Autotreni;08 Autoarticolati;09 Autobus;10 Veicoli non classificati;Totale;Feriali;Festivi;Prefestivi;;Anno;01 Motocicli;02 Auto e monovolume;03 Auto e monovolume con rimorchio;04 Furgoncini e camioncini;05 Camion medi;06 Camion grandi;07 Autotreni;08 Autoarticolati;09 Autobus;10 Veicoli non classificati;Totale;Feriali;Festivi;Prefestivi
2019;197;21664;8;1331;185;163;65;170;25;0;23808;25025;19107;23565;;2019;88;10037;4;688;103;92;44;92;14;0;11162;11747;9005;10919;;2019;109;11628;4;643;82;72;20;77;12;0;12647;13278;10102;12646
;;;;;;;;;;;;;;;;;;;;;;;;;;;;;;;;;;;;;;;;;;;;;;
Tabella flussi 2019;;;;;;;;;;;;;;;;Tabella flussi 2019;;;;;;;;;;;;;;;;Tabella flussi 2019;;;;;;;;;;;;;;
Tratta nr.53 SR436, Km 2.800, Pieve a Nievole(PT) (flussi ascendente/discendente);;;;;;;;;;;;;;;;Tratta nr.53 SR436, Km 2.800, Pieve a Nievole(PT) (flusso ascendente);;;;;;;;;;;;;;;;Tratta nr.53 SR436, Km 2.800, Pieve a Nievole(PT) (flusso discendente);;;;;;;;;;;;;;
;Traffico Totale;;;;;;;;;;;Traffico Med.Orario 06:00 - 20:00;Traffico Ora di punta;;;;Traffico Totale;;;;;;;;;;;Traffico Med.Orario 06:00 - 20:00;Traffico Ora di punta;;;;Traffico Totale;;;;;;;;;;;Traffico Med.Orario 06:00 - 20:00;Traffico Ora di punta;
Giorno;01 Motocicli;02 Auto e monovolume;03 Auto e monovolume con rimorchio;04 Furgoncini e camioncini;05 Camion medi;06 Camion grandi;07 Autotreni;08 Autoarticolati;09 Autobus;10 Veicoli non classificati;Totale;Totale;Ora di punta;Flusso totale ora di punta;;Giorno;01 Motocicli;02 Auto e monovolume;03 Auto e monovolume con rimorchio;04 Furgoncini e camioncini;05 Camion medi;06 Camion grandi;07 Autotreni;08 Autoarticolati;09 Autobus;10 Veicoli non classificati;Totale;Totale;Ora di punta;Flusso totale ora di punta;;Giorno;01 Motocicli;02 Auto e monovolume;03 Auto e monovolume con rimorchio;04 Furgoncini e camioncini;05 Camion medi;06 Camion grandi;07 Autotreni;08 Autoarticolati;09 Autobus;10 Veicoli non classificati;Totale;Totale;Ora di punta;Flusso totale ora di punta
01/01/2019;50;15773;4;244;22;2;1;1;17;0;16114;770;16;1345;;01/01/2019;26;7416;2;125;10;1;0;1;7;0;7588;339;17;657;;01/01/2019;24;8357;2;119;12;1;1;0;10;0;8526;431;16;782
02/01/2019;59;20468;7;1186;169;81;34;111;18;0;22133;1354;17;1780;;02/01/2019;23;9246;3;576;87;45;19;55;8;0;10062;606;17;833;;02/01/2019;36;11222;4;610;82;36;15;56;10;0;12071;748;17;947
03/01/2019;71;21304;3;1314;165;103;36;146;11;0;23153;1413;17;1779;;03/01/2019;37;9497;2;647;87;54;16;78;5;0;10423;626;18;842;;03/01/2019;34;11807;1;667;78;49;20;68;6;0;12730;787;17;957
04/01/2019;49;21970;1;1329;179;128;41;161;10;0;23868;1436;17;1807;;04/01/2019;23;9915;0;670;88;67;25;87;5;0;10880;651;17;834;;04/01/2019;26;12055;1;659;91;61;16;74;5;0;12988;784;17;973
05/01/2019;40;22032;5;722;54;24;5;25;12;0;22919;1295;17;1790;;05/01/2019;22;10010;3;350;31;15;2;15;7;0;10455;576;18;836;;05/01/2019;18;12022;2;372;23;9;3;10;5;0;12464;720;17;1004
06/01/2019;51;18023;3;310;13;4;3;4;8;0;18419;1011;17;1617;;06/01/2019;22;8356;1;153;7;1;1;2;5;0;8548;447;18;807;;06/01/2019;29;9667;2;157;6;3;2;2;3;0;9871;564;16;939
07/01/2019;65;21860;7;1584;213;157;52;194;22;0;24154;1504;17;1849;;07/01/2019;32;9986;2;790;116;90;34;99;10;0;11159;684;17;891;;07/01/2019;33;11874;5;794;97;67;18;95;12;0;12995;820;15;963
08/01/2019;30;21843;4;1515;196;202;47;220;35;0;24092;1506;18;1796;;08/01/2019;17;9959;3;739;110;123;29;124;20;0;11124;694;18;917;;08/01/2019;13;11884;1;776;86;79;18;96;15;0;12968;812;17;944
09/01/2019;44;22488;2;1547;255;161;81;228;28;0;24834;1533;17;1845;;09/01/2019;18;10303;0;773;142;87;51;131;17;0;11522;702;18;904;;09/01/2019;26;12185;2;774;113;74;30;97;11;0;13312;831;17;977
10/01/2019;45;22941;2;1654;207;157;66;251;9;0;25332;1563;18;1888;;10/01/2019;21;10426;0;834;118;88;37;133;5;0;11662;714;18;931;;10/01/2019;24;12515;2;820;89;69;29;118;4;0;13670;849;17;988
11/01/2019;52;23268;8;1606;228;188;69;232;7;0;25658;1545;18;1817;;11/01/2019;20;10479;3;822;116;98;36;122;4;0;11700;704;18;906;;11/01/2019;32;12789;5;784;112;90;33;110;3;0;13958;841;8;971
12/01/2019;56;22567;5;849;75;24;15;19;7;0;23617;1340;17;1831;;12/01/2019;26;10280;3;425;38;13;10;12;5;0;10812;601;17;868;;12/01/2019;30;12287;2;424;37;11;5;7;2;0;12805;739;17;963
13/01/2019;35;18712;12;347;12;7;3;5;3;0;19136;1051;17;1688;;13/01/2019;20;8574;7;183;4;4;1;3;0;0;8796;464;17;813;;13/01/2019;15;10138;5;164;8;3;2;2;3;0;10340;587;16;961
14/01/2019;89;22264;4;1605;221;206;67;244;20;0;24720;1533;17;1873;;14/01/2019;41;10130;3;822;123;113;43;135;11;0;11421;698;18;925;;14/01/2019;48;12134;1;783;98;93;24;109;9;0;13299;835;17;965
15/01/2019;85;22293;1;1549;283;255;73;261;15;0;24815;1536;17;1870;;15/01/2019;41;10076;1;778;162;133;43;150;9;0;11393;702;17;924;;15/01/2019;44;12217;0;771;121;122;30;111;6;0;13422;834;17;946
16/01/2019;88;22586;7;1562;245;235;72;253;15;0;25063;1542;17;1816;;16/01/2019;41;10290;2;755;130;133;43;137;6;0;11537;705;17;900;;16/01/2019;47;12296;5;807;115;102;29;116;9;0;13526;836;8;971
17/01/2019;41;22261;10;1632;252;203;83;235;19;0;24736;1518;18;1787;;17/01/2019;17;10200;5;831;135;115;54;130;12;0;11499;700;18;887;;17/01/2019;24;12061;5;801;117;88;29;105;7;0;13237;818;8;965
18/01/2019;54;23624;18;1653;281;241;95;247;20;0;26233;1575;17;1885;;18/01/2019;26;10685;8;841;163;139;62;132;11;0;12067;723;17;921;;18/01/2019;28;12939;10;812;118;102;33;115;9;0;14166;852;8;984
19/01/2019;69;23284;10;797;76;22;12;27;15;0;24312;1373;17;1707;;19/01/2019;29;10524;4;391;39;13;8;14;9;0;11031;615;12;837;;19/01/2019;40;12760;6;406;37;9;4;13;6;0;13281;758;16;935
20/01/2019;68;19356;3;361;21;7;4;7;5;0;19832;1089;17;1700;;20/01/2019;34;8807;2;180;12;3;4;4;3;0;9049;474;18;884;;20/01/2019;34;10549;1;181;9;4;0;3;2;0;10783;614;15;934
21/01/2019;75;21604;4;1551;215;225;72;238;15;0;23999;1485;18;1793;;21/01/2019;37;9884;1;785;119;126;49;135;10;0;11146;682;18;896;;21/01/2019;38;11720;3;766;96;99;23;103;5;0;12853;804;12;924
22/01/2019;37;21822;6;1570;273;234;76;269;19;0;24306;1512;17;1769;;22/01/2019;18;9971;4;784;140;124;42;154;11;0;11248;698;18;885;;22/01/2019;19;11851;2;786;133;110;34;115;8;0;13058;814;8;935
23/01/2019;32;21805;5;1462;283;244;63;253;15;0;24162;1504;18;1756;;23/01/2019;16;9874;1;725;148;127;37;143;8;0;11079;686;18;872;;23/01/2019;16;11931;4;737;135;117;26;110;7;0;13083;818;8;956
24/01/2019;53;22231;3;1594;209;210;85;232;21;0;24638;1513;17;1802;;24/01/2019;25;10039;1;799;107;118;59;130;13;0;11291;683;18;878;;24/01/2019;28;12192;2;795;102;92;26;102;8;0;13347;830;8;970
25/01/2019;67;23026;2;1635;280;230;71;247;13;0;25571;1543;17;1820;;25/01/2019;33;10342;1;811;157;125;41;132;6;0;11648;702;18;893;;25/01/2019;34;12684;1;824;123;105;30;115;7;0;13923;840;8;981
26/01/2019;62;22759;6;753;58;31;10;25;6;0;23710;1332;17;1726;;26/01/2019;30;10254;3;372;30;16;7;13;5;0;10730;594;17;808;;26/01/2019;32;12505;3;381;28;15;3;12;1;0;12980;738;11;920
27/01/2019;21;17382;2;300;14;4;1;10;4;0;17738;961;17;1492;;27/01/2019;11;8047;1;153;8;1;0;6;2;0;8229;420;17;719;;27/01/2019;10;9335;1;147;6;3;1;4;2;0;9509;541;17;773
28/01/2019;52;21589;5;1526;281;212;77;225;12;0;23979;1489;17;1861;;28/01/2019;21;9802;2;776;141;114;49;118;8;0;11031;678;18;900;;28/01/2019;31;11787;3;750;140;98;28;107;4;0;12948;812;17;1005
29/01/2019;67;21982;4;1531;258;215;67;257;23;0;24404;1520;18;1794;;29/01/2019;28;9959;1;775;132;115;41;140;12;0;11203;693;18;896;;29/01/2019;39;12023;3;756;126;100;26;117;11;0;13201;827;8;1003
30/01/2019;48;21403;3;1501;238;216;53;218;8;0;23688;1474;8;1745;;30/01/2019;23;9744;1;754;126;125;28;116;4;0;10921;676;18;823;;30/01/2019;25;11659;2;747;112;91;25;102;4;0;12767;798;8;968
31/01/2019;33;21139;4;1508;216;205;74;257;23;0;23459;1446;8;1758;;31/01/2019;15;9591;1;749;111;115;39;145;12;0;10778;656;18;844;;31/01/2019;18;11548;3;759;105;90;35;112;11;0;12681;789;8;963
01/02/2019;28;22760;4;1435;225;175;55;227;12;0;24921;1503;17;1724;;01/02/2019;14;10255;2;710;124;100;32;121;5;0;11363;684;18;831;;01/02/2019;14;12505;2;725;101;75;23;106;7;0;13558;819;8;968
02/02/2019;14;21253;2;736;61;28;7;35;13;0;22149;1233;11;1587;;02/02/2019;7;9494;1;349;32;14;4;19;9;0;9929;541;12;742;;02/02/2019;7;11759;1;387;29;14;3;16;4;0;12220;692;11;886
03/02/2019;15;18082;2;350;15;7;3;7;7;0;18488;1010;17;1491;;03/02/2019;8;8100;1;178;3;3;1;2;3;0;8299;429;18;733;;03/02/2019;7;9982;1;172;12;4;2;5;4;0;10189;581;15;928
04/02/2019;77;22232;0;1526;232;184;68;223;7;0;24549;1524;17;1842;;04/02/2019;32;10144;0;778;133;102;45;118;5;0;11357;700;18;920;;04/02/2019;45;12088;0;748;99;82;23;105;2;0;13192;824;17;975
05/02/2019;87;22874;9;1694;229;254;110;233;16;0;25506;1587;17;1893;;05/02/2019;47;10926;3;906;131;139;82;127;10;0;12371;763;17;933;;05/02/2019;40;11948;6;788;98;115;28;106;6;0;13135;824;8;976
06/02/2019;79;22654;9;1698;246;236;125;266;21;0;25334;1568;18;1849;;06/02/2019;34;10824;4;944;150;134;98;144;16;0;12348;760;18;943;;06/02/2019;45;11830;5;754;96;102;27;122;5;0;12986;808;8;942
07/02/2019;78;23072;8;1723;222;226;117;242;14;0;25702;1580;17;1859;;07/02/2019;37;11115;6;949;139;134;86;131;10;0;12607;771;17;937;;07/02/2019;41;11957;2;774;83;92;31;111;4;0;13095;809;8;956
08/02/2019;85;23554;8;1682;272;224;112;222;13;0;26172;1568;17;1825;;08/02/2019;35;11133;5;908;154;127;80;110;9;0;12561;752;19;941;;08/02/2019;50;12421;3;774;118;97;32;112;4;0;13611;816;8;998
09/02/2019;64;23258;5;822;61;28;14;29;18;0;24299;1374;11;1723;;09/02/2019;28;11375;2;427;36;17;7;18;10;0;11920;661;11;867;;09/02/2019;36;11883;3;395;25;11;7;11;8;0;12379;713;16;916
10/02/2019;38;19471;3;388;24;6;8;8;14;0;19960;1096;17;1753;;10/02/2019;18;9366;1;231;17;3;7;4;7;0;9654;509;17;878;;10/02/2019;20;10105;2;157;7;3;1;4;7;0;10306;587;15;905
11/02/2019;89;22530;5;1801;285;200;114;258;22;0;25304;1574;17;1836;;11/02/2019;44;10873;3;994;167;113;88;137;15;0;12434;766;18;936;;11/02/2019;45;11657;2;807;118;87;26;121;7;0;12870;808;8;914
12/02/2019;79;22666;7;1702;268;229;101;210;25;0;25287;1572;18;1829;;12/02/2019;37;10875;4;931;152;131;75;127;18;0;12350;763;18;938;;12/02/2019;42;11791;3;771;116;98;26;83;7;0;12937;809;8;961
13/02/2019;103;22841;5;1687;271;214;111;225;27;0;25484;1570;17;1843;;13/02/2019;33;10917;2;941;172;120;80;118;18;0;12401;759;19;944;;13/02/2019;70;11924;3;746;99;94;31;107;9;0;13083;811;17;934
14/02/2019;77;23731;8;1803;252;250;123;234;20;0;26498;1603;17;1815;;14/02/2019;32;11276;3;1003;158;143;90;133;12;0;12850;771;19;928;;14/02/2019;45;12455;5;800;94;107;33;101;8;0;13648;832;8;949
15/02/2019;107;23528;10;1734;228;227;124;226;25;0;26209;1561;17;1833;;15/02/2019;47;11215;5;959;138;139;94;113;19;0;12729;755;17;912;;15/02/2019;60;12313;5;775;90;88;30;113;6;0;13480;806;17;921
16/02/2019;127;23980;4;890;67;38;12;30;15;0;25163;1423;17;1774;;16/02/2019;56;11586;2;468;43;18;7;17;11;0;12208;682;18;903;;16/02/2019;71;12394;2;422;24;20;5;13;4;0;12955;741;16;938
17/02/2019;114;19738;0;435;26;5;25;4;13;0;20360;1130;17;1742;;17/02/2019;63;9555;0;241;13;3;24;2;10;0;9911;521;18;979;;17/02/2019;51;10183;0;194;13;2;1;2;3;0;10449;609;15;929
18/02/2019;99;22119;11;1657;252;187;94;209;21;0;24649;1532;17;1802;;18/02/2019;45;10624;5;902;146;114;75;112;16;0;12039;741;18;910;;18/02/2019;54;11495;6;755;106;73;19;97;5;0;12610;791;17;917
19/02/2019;73;22528;11;1769;254;243;114;230;25;0;25247;1565;17;1823;;19/02/2019;33;10729;5;957;150;135;84;133;20;0;12246;755;18;942;;19/02/2019;40;11799;6;812;104;108;30;97;5;0;13001;811;8;946
20/02/2019;114;22700;8;1669;245;239;107;248;17;0;25347;1562;17;1830;;20/02/2019;58;10833;6;921;141;146;73;136;12;0;12326;752;19;928;;20/02/2019;56;11867;2;748;104;93;34;112;5;0;13021;811;8;950
21/02/2019;115;22455;9;1747;264;202;113;257;27;0;25189;1545;17;1793;;21/02/2019;56;10736;4;946;151;114;89;150;16;0;12262;745;18;925;;21/02/2019;59;11719;5;801;113;88;24;107;11;0;12927;800;8;944
22/02/2019;115;23727;8;1753;286;230;92;238;22;0;26471;1582;17;1843;;22/02/2019;57;11249;4;935;169;134;62;132;14;0;12756;761;18;932;;22/02/2019;58;12478;4;818;117;96;30;106;8;0;13715;821;8;929
23/02/2019;86;23814;10;891;73;28;17;33;20;0;24972;1423;17;1785;;23/02/2019;48;11436;5;474;47;15;14;23;11;0;12073;672;17;884;;23/02/2019;38;12378;5;417;26;13;3;10;9;0;12899;751;10;908
24/02/2019;69;19367;23;398;21;9;14;7;14;0;19922;1103;17;1833;;24/02/2019;36;9350;12;233;13;5;9;5;9;0;9672;512;18;913;;24/02/2019;33;10017;11;165;8;4;5;2;5;0;10250;591;17;966
25/02/2019;74;22432;2;1683;272;231;89;250;22;0;25055;1553;17;1864;;25/02/2019;30;10766;1;899;163;138;67;131;15;0;12210;749;18;926;;25/02/2019;44;11666;1;784;109;93;22;119;7;0;12845;804;17;945
26/02/2019;124;22549;2;1715;243;245;101;262;22;0;25263;1570;17;1831;;26/02/2019;60;10772;1;943;140;143;74;142;17;0;12292;759;18;942;;26/02/2019;64;11777;1;772;103;102;27;120;5;0;12971;811;17;950
27/02/2019;134;22938;9;1718;233;274;99;215;20;0;25640;1589;18;1787;;27/02/2019;59;11166;7;948;144;154;71;117;17;0;12683;778;18;916;;27/02/2019;75;11772;2;770;89;120;28;98;3;0;12957;811;16;906
28/02/2019;112;23101;6;1692;315;268;108;234;24;0;25860;1577;17;1767;;28/02/2019;46;10994;2;929;186;159;81;128;13;0;12538;757;18;917;;28/02/2019;66;12107;4;763;129;109;27;106;11;0;13322;820;7;948
01/03/2019;106;23936;12;1734;253;288;98;226;23;0;26676;1604;8;1847;;01/03/2019;41;11351;5;949;157;178;75;122;17;0;12895;774;18;928;;01/03/2019;65;12585;7;785;96;110;23;104;6;0;13781;830;8;1001
02/03/2019;127;23690;16;940;67;30;23;28;24;0;24945;1416;17;1800;;02/03/2019;58;11326;7;508;45;17;17;18;14;0;12010;672;19;910;;02/03/2019;69;12364;9;432;22;13;6;10;10;0;12935;743;16;931
03/03/2019;141;19961;4;459;29;5;19;7;8;0;20633;1139;17;1758;;03/03/2019;63;9743;2;272;19;4;17;4;2;0;10126;530;18;924;;03/03/2019;78;10218;2;187;10;1;2;3;6;0;10507;608;16;893
04/03/2019;105;23023;7;1740;260;267;97;249;18;0;25766;1576;17;1831;;04/03/2019;49;11105;4;971;156;160;72;139;11;0;12667;765;18;958;;04/03/2019;56;11918;3;769;104;107;25;110;7;0;13099;811;17;937
05/03/2019;98;23011;7;1746;237;293;110;220;24;0;25746;1576;17;1847;;05/03/2019;31;10907;3;981;143;170;87;122;20;0;12464;755;17;912;;05/03/2019;67;12104;4;765;94;123;23;98;4;0;13282;821;8;963
06/03/2019;107;22915;7;1661;211;285;83;228;15;0;25512;1564;17;1872;;06/03/2019;33;11006;2;904;128;163;60;117;10;0;12423;751;18;911;;06/03/2019;74;11909;5;757;83;122;23;111;5;0;13089;813;17;963
07/03/2019;81;23127;5;1808;326;267;141;261;29;0;26045;1594;17;1831;;07/03/2019;30;11036;3;969;185;163;110;146;19;0;12661;767;17;910;;07/03/2019;51;12091;2;839;141;104;31;115;10;0;13384;827;8;957
08/03/2019;106;24267;14;1816;356;275;108;245;20;0;27207;1601;18;1858;;08/03/2019;42;11491;4;999;216;159;79;132;15;0;13137;772;18;949;;08/03/2019;64;12776;10;817;140;116;29;113;5;0;14070;829;8;984
09/03/2019;127;23645;8;910;68;29;28;38;22;0;24875;1387;17;1794;;09/03/2019;67;11466;4;463;46;15;25;24;15;0;12125;662;18;901;;09/03/2019;60;12179;4;447;22;14;3;14;7;0;12750;725;16;913
10/03/2019;53;19103;9;401;28;6;6;9;27;0;19642;1085;17;1782;;10/03/2019;28;9271;6;218;18;1;5;6;11;0;9564;507;17;844;;10/03/2019;25;9832;3;183;10;5;1;3;16;0;10078;578;17;938
11/03/2019;95;22697;11;1676;212;256;107;233;33;0;25320;1564;18;1848;;11/03/2019;48;10883;2;909;125;158;79;126;23;0;12353;753;18;945;;11/03/2019;47;11814;9;767;87;98;28;107;10;0;12967;811;8;951
12/03/2019;129;22571;9;1676;255;259;91;241;25;0;25256;1555;17;1811;;12/03/2019;48;10898;5;957;155;159;75;130;18;0;12445;760;18;919;;12/03/2019;81;11673;4;719;100;100;16;111;7;0;12811;795;8;941
13/03/2019;34;23039;7;1684;268;261;109;261;33;0;25696;1583;8;1807;;13/03/2019;12;11163;6;968;164;153;75;142;19;0;12702;773;19;934;;13/03/2019;22;11876;1;716;104;108;34;119;14;0;12994;810;8;957
14/03/2019;101;23873;10;1841;295;237;115;284;35;0;26791;1645;17;1844;;14/03/2019;48;11498;6;990;185;125;79;147;22;0;13100;797;17;999;;14/03/2019;53;12375;4;851;110;112;36;137;13;0;13691;848;12;977
15/03/2019;130;23738;8;1828;254;253;82;262;39;0;26594;1593;17;1820;;15/03/2019;61;11177;5;1009;148;144;56;145;23;0;12768;766;19;926;;15/03/2019;69;12561;3;819;106;109;26;117;16;0;13826;826;8;922
16/03/2019;202;23605;11;920;71;31;17;33;34;0;24924;1399;17;1751;;16/03/2019;107;11211;2;459;49;16;11;21;18;0;11894;653;19;879;;16/03/2019;95;12394;9;461;22;15;6;12;16;0;13030;746;17;985
17/03/2019;156;20142;8;379;23;7;11;11;18;0;20755;1149;17;1658;;17/03/2019;76;9654;3;218;13;4;9;6;9;0;9992;527;18;915;;17/03/2019;80;10488;5;161;10;3;2;5;9;0;10763;622;16;944
18/03/2019;83;22592;4;1675;238;235;121;221;28;0;25197;1564;17;1807;;18/03/2019;39;10903;3;913;138;136;87;127;21;0;12367;762;17;919;;18/03/2019;44;11689;1;762;100;99;34;94;7;0;12830;803;8;924
19/03/2019;91;22932;7;1691;248;205;98;262;36;0;25570;1572;18;1802;;19/03/2019;47;11108;5;929;149;112;70;142;24;0;12586;769;18;942;;19/03/2019;44;11824;2;762;99;93;28;120;12;0;12984;803;8;934
20/03/2019;86;22614;9;1682;285;233;129;221;32;0;25291;1559;17;1812;;20/03/2019;36;10927;5;925;167;127;99;121;19;0;12426;759;19;931;;20/03/2019;50;11687;4;757;118;106;30;100;13;0;12865;800;8;935
21/03/2019;131;22746;14;1730;327;270;123;221;35;0;25597;1558;17;1804;;21/03/2019;52;10849;7;928;195;155;95;122;19;0;12422;751;17;914;;21/03/2019;79;11897;7;802;132;115;28;99;16;0;13175;806;8;944
22/03/2019;145;23771;12;1667;214;267;101;216;40;0;26433;1565;17;1818;;22/03/2019;57;11246;6;897;129;160;71;109;21;0;12696;755;18;904;;22/03/2019;88;12525;6;770;85;107;30;107;19;0;13737;810;8;939
23/03/2019;305;24008;11;961;67;33;24;30;25;0;25464;1426;17;1794;;23/03/2019;147;11575;4;502;45;18;18;16;16;0;12341;677;19;913;;23/03/2019;158;12433;7;459;22;15;6;14;9;0;13123;748;17;912
24/03/2019;265;20526;6;486;35;7;25;11;23;0;21384;1171;18;1673;;24/03/2019;123;9983;3;271;26;2;22;4;11;0;10445;539;18;933;;24/03/2019;142;10543;3;215;9;5;3;7;12;0;10939;632;16;878
25/03/2019;124;22151;4;1597;307;230;90;234;27;0;24764;1539;8;1827;;25/03/2019;55;10677;1;874;184;134;68;132;16;0;12141;744;18;916;;25/03/2019;69;11474;3;723;123;96;22;102;11;0;12623;795;8;954
26/03/2019;75;22231;13;1695;294;309;116;261;38;0;25032;1553;18;1842;;26/03/2019;28;10677;6;894;169;167;84;135;24;0;12184;750;18;951;;26/03/2019;47;11554;7;801;125;142;32;126;14;0;12848;803;8;954
27/03/2019;113;22615;5;1684;290;292;124;211;39;0;25373;1565;17;1821;;27/03/2019;49;10790;1;923;180;166;101;109;24;0;12343;757;18;912;;27/03/2019;64;11825;4;761;110;126;23;102;15;0;13030;808;8;938
28/03/2019;118;22608;2;1682;291;287;111;254;43;0;25396;1545;17;1859;;28/03/2019;54;11000;1;827;157;155;61;138;24;0;12417;746;17;928;;28/03/2019;64;11608;1;855;134;132;50;116;19;0;12979;799;17;931
29/03/2019;155;23596;8;1695;247;249;92;233;36;0;26311;1567;17;1780;;29/03/2019;70;11263;4;910;148;135;68;122;16;0;12736;757;18;926;;29/03/2019;85;12333;4;785;99;114;24;111;20;0;13575;810;8;953
30/03/2019;227;23801;20;932;80;31;24;29;25;0;25169;1419;17;1733;;30/03/2019;104;11400;11;508;53;16;22;15;13;0;12142;671;19;922;;30/03/2019;123;12401;9;424;27;15;2;14;12;0;13027;748;17;892
31/03/2019;249;19890;6;469;23;8;19;8;25;0;20697;1122;18;1658;;31/03/2019;114;9532;4;276;19;3;17;5;12;0;9982;513;19;916;;31/03/2019;135;10358;2;193;4;5;2;3;13;0;10715;609;16;887
01/04/2019;195;22354;8;1591;280;240;100;252;26;0;25046;1529;17;1833;;01/04/2019;91;10757;4;850;165;139;68;145;17;0;12236;736;18;899;;01/04/2019;104;11597;4;741;115;101;32;107;9;0;12810;793;17;952
02/04/2019;165;22624;12;1631;262;247;115;236;28;0;25320;1552;17;1825;;02/04/2019;65;10916;5;894;148;139;84;121;16;0;12388;754;18;923;;02/04/2019;100;11708;7;737;114;108;31;115;12;0;12932;798;8;960
03/04/2019;46;22828;10;1663;285;223;103;220;43;0;25421;1552;17;1841;;03/04/2019;19;10955;7;923;169;130;77;121;26;0;12427;753;19;932;;03/04/2019;27;11873;3;740;116;93;26;99;17;0;12994;799;8;970
04/04/2019;38;22827;11;1670;212;254;105;243;43;0;25403;1546;17;1756;;04/04/2019;25;11009;6;892;122;144;73;137;26;0;12434;750;17;884;;04/04/2019;13;11818;5;778;90;110;32;106;17;0;12969;796;8;961
05/04/2019;76;23893;10;1748;243;273;125;252;39;0;26659;1575;17;1807;;05/04/2019;38;11266;3;973;150;154;101;129;28;0;12842;755;19;921;;05/04/2019;38;12627;7;775;93;119;24;123;11;0;13817;820;8;961
06/04/2019;184;23223;20;1014;83;32;21;42;30;0;24649;1378;17;1753;;06/04/2019;92;11042;9;503;46;21;5;25;15;0;11758;649;19;834;;06/04/2019;92;12181;11;511;37;11;16;17;15;0;12891;729;17;937
07/04/2019;54;19699;14;451;17;12;7;4;34;0;20292;1095;17;1678;;07/04/2019;23;9427;6;241;12;6;6;3;15;0;9739;497;19;863;;07/04/2019;31;10272;8;210;5;6;1;1;19;0;10553;598;17;927
08/04/2019;131;22753;7;1736;285;233;117;271;37;0;25570;1562;17;1796;;08/04/2019;61;10914;4;948;163;141;92;160;23;0;12506;753;17;904;;08/04/2019;70;11839;3;788;122;92;25;111;14;0;13064;809;7;935
09/04/2019;137;22547;11;1631;253;275;111;280;40;0;25285;1543;17;1814;;09/04/2019;55;10801;6;861;140;151;89;154;25;0;12282;744;17;917;;09/04/2019;82;11746;5;770;113;124;22;126;15;0;13003;799;7;932
10/04/2019;124;23023;9;1750;248;224;120;260;38;0;25796;1579;18;1767;;10/04/2019;50;11044;3;957;152;127;87;140;24;0;12584;760;18;900;;10/04/2019;74;11979;6;793;96;97;33;120;14;0;13212;819;8;942
11/04/2019;78;22898;9;1762;273;250;109;236;53;0;25668;1564;16;1763;;11/04/2019;34;10937;4;954;157;148;79;131;31;0;12475;755;19;895;;11/04/2019;44;11961;5;808;116;102;30;105;22;0;13193;809;8;976
12/04/2019;150;24264;9;1778;230;254;100;229;39;0;27053;1607;17;1825;;12/04/2019;57;11506;2;969;132;144;71;121;19;0;13021;772;17;912;;12/04/2019;93;12758;7;809;98;110;29;108;20;0;14032;835;8;964
13/04/2019;171;23900;9;936;70;27;31;35;27;0;25206;1407;18;1791;;13/04/2019;72;11466;6;512;45;15;26;20;16;0;12178;668;18;924;;13/04/2019;99;12434;3;424;25;12;5;15;11;0;13028;739;16;954
14/04/2019;39;18389;2;426;16;5;6;10;5;0;18898;1018;17;1571;;14/04/2019;23;8988;1;233;11;3;3;5;1;0;9268;478;19;824;;14/04/2019;16;9401;1;193;5;2;3;5;4;0;9630;540;15;806
15/04/2019;130;22801;3;1789;278;249;111;215;43;0;25619;1572;17;1782;;15/04/2019;60;10916;2;987;167;132;82;120;26;0;12492;755;17;899;;15/04/2019;70;11885;1;802;111;117;29;95;17;0;13127;817;7;915
16/04/2019;188;22883;12;1630;251;295;117;244;57;0;25677;1570;17;1855;;16/04/2019;86;11075;5;901;154;167;86;132;37;0;12643;766;16;928;;16/04/2019;102;11808;7;729;97;128;31;112;20;0;13034;805;17;932
17/04/2019;209;24077;13;1853;299;260;155;315;40;0;27221;1609;18;1842;;17/04/2019;86;11471;6;1040;177;156;118;168;25;0;13247;776;18;933;;17/04/2019;123;12606;7;813;122;104;37;147;15;0;13974;834;9;916
18/04/2019;181;24239;8;1870;233;251;145;263;38;0;27228;1600;17;1873;;18/04/2019;85;11388;3;1030;128;147;110;146;24;0;13061;754;17;935;;18/04/2019;96;12851;5;840;105;104;35;117;14;0;14167;845;17;938
19/04/2019;240;24565;9;1678;190;170;70;172;9;0;27103;1584;17;1882;;19/04/2019;120;11578;5;887;110;96;50;94;6;0;12946;753;17;955;;19/04/2019;120;12987;4;791;80;74;20;78;3;0;14157;831;16;970
20/04/2019;294;23177;16;894;72;24;13;24;18;0;24532;1383;11;1780;;20/04/2019;132;11077;7;458;50;11;9;17;9;0;11770;652;18;900;;20/04/2019;162;12100;9;436;22;13;4;7;9;0;12762;731;10;955
21/04/2019;155;17819;2;297;14;1;1;1;14;0;18304;942;12;1640;;21/04/2019;82;8530;1;168;7;1;1;0;8;0;8798;430;12;843;;21/04/2019;73;9289;1;129;7;0;0;1;6;0;9506;512;17;862
22/04/2019;137;17898;8;562;26;4;8;5;8;0;18656;1063;17;1543;;22/04/2019;69;8969;4;310;14;2;6;3;3;0;9380;511;18;878;;22/04/2019;68;8929;4;252;12;2;2;2;5;0;9276;552;10;825